Time,TemperatureF,DewpointF,PressureIn,WindDirection,WindDirectionDegrees,WindSpeedMPH,WindSpeedGustMPH,Humidity,HourlyPrecipIn,Conditions,Clouds,dailyrainin,SoftwareType,DateUTC
2013-09-14 00:00:00,51.5,46.2,30.00,NNE,29,0.0,0.0,82,0.00,,CLR,0.00,VWS V12.08,2013-09-14 04:00:00,
2013-09-14 00:01:00,51.5,46.2,30.00,NNE,29,0.0,0.0,82,0.00,,CLR,0.00,VWS V12.08,2013-09-14 04:01:00,
2013-09-14 00:02:00,51.5,46.2,30.00,NNE,29,0.0,0.0,82,0.00,,CLR,0.00,VWS V12.08,2013-09-14 04:02:00,
2013-09-14 00:07:00,51.3,46.0,30.00,NNE,29,0.0,0.0,82,0.00,,CLR,0.00,VWS V12.08,2013-09-14 04:07:00,
2013-09-14 00:12:00,51.3,46.3,30.00,NNE,29,0.0,0.0,83,0.00,,CLR,0.00,VWS V12.08,2013-09-14 04:12:00,
2013-09-14 00:17:00,51.3,46.3,30.00,NNE,29,0.0,0.0,83,0.00,,CLR,0.00,VWS V12.08,2013-09-14 04:17:00,
2013-09-14 00:22:00,51.3,46.6,30.00,NNE,29,0.0,0.0,84,0.00,,CLR,0.00,VWS V12.08,2013-09-14 04:22:00,
2013-09-14 00:27:00,51.1,46.5,30.00,NNE,29,0.0,0.0,84,0.00,,CLR,0.00,VWS V12.08,2013-09-14 04:27:00,
2013-09-14 00:32:00,51.1,46.5,30.00,NNE,29,0.0,0.0,84,0.00,,CLR,0.00,VWS V12.08,2013-09-14 04:32:00,
2013-09-14 00:37:00,50.9,46.3,30.00,NNE,29,0.0,0.0,84,0.00,,CLR,0.00,VWS V12.08,2013-09-14 04:37:00,
2013-09-14 00:42:00,51.1,46.5,30.00,NNE,29,0.0,0.0,84,0.00,,CLR,0.00,VWS V12.08,2013-09-14 04:42:00,
2013-09-14 00:47:00,51.1,46.5,30.00,NNE,29,0.0,0.0,84,0.00,,CLR,0.00,VWS V12.08,2013-09-14 04:47:00,
2013-09-14 00:52:00,51.1,46.5,30.00,NNE,29,0.0,0.0,84,0.00,,CLR,0.00,VWS V12.08,2013-09-14 04:52:00,
2013-09-14 00:57:00,51.1,46.5,30.00,NNE,29,0.0,0.0,84,0.00,,CLR,0.00,VWS V12.08,2013-09-14 04:57:00,
2013-09-14 01:02:00,51.1,46.5,30.00,NNE,29,0.0,0.0,84,0.00,,CLR,0.00,VWS V12.08,2013-09-14 05:02:00,
2013-09-14 01:07:00,50.9,46.3,30.00,NNE,29,0.0,0.0,84,0.00,,CLR,0.00,VWS V12.08,2013-09-14 05:07:00,
2013-09-14 01:12:00,50.8,46.1,30.00,NNE,29,0.0,0.0,84,0.00,,CLR,0.00,VWS V12.08,2013-09-14 05:12:00,
2013-09-14 01:17:00,50.6,45.9,30.00,NNE,29,0.0,0.0,84,0.00,,CLR,0.00,VWS V12.08,2013-09-14 05:17:00,
2013-09-14 01:22:00,50.4,45.8,30.00,NNE,29,0.0,0.0,84,0.00,,CLR,0.00,VWS V12.08,2013-09-14 05:22:00,
2013-09-14 01:27:00,50.4,46.1,30.00,NNE,29,0.0,0.0,85,0.00,,CLR,0.00,VWS V12.08,2013-09-14 05:27:00,
2013-09-14 01:32:00,50.4,46.1,30.03,NNE,29,0.0,0.0,85,0.00,,CLR,0.00,VWS V12.08,2013-09-14 05:32:00,
2013-09-14 01:37:00,50.2,45.9,30.03,NNE,29,0.0,0.0,85,0.00,,CLR,0.00,VWS V12.08,2013-09-14 05:37:00,
2013-09-14 01:42:00,50.0,45.7,30.03,NNE,29,0.0,0.0,85,0.00,,CLR,0.00,VWS V12.08,2013-09-14 05:42:00,
2013-09-14 01:47:00,50.0,45.7,30.03,NNE,29,0.0,0.0,85,0.00,,CLR,0.00,VWS V12.08,2013-09-14 05:47:00,
2013-09-14 01:52:00,49.9,45.8,30.03,NNE,29,0.0,0.0,86,0.00,,CLR,0.00,VWS V12.08,2013-09-14 05:52:00,
2013-09-14 01:57:00,49.9,45.8,30.03,NNE,29,0.0,0.0,86,0.00,,CLR,0.00,VWS V12.08,2013-09-14 05:57:00,
2013-09-14 02:02:00,49.9,45.8,30.03,NNE,29,0.0,0.0,86,0.00,,CLR,0.00,VWS V12.08,2013-09-14 06:02:00,
2013-09-14 02:07:00,49.9,45.8,30.03,NNE,29,0.0,0.0,86,0.00,,CLR,0.00,VWS V12.08,2013-09-14 06:07:00,
2013-09-14 02:12:00,49.9,45.8,30.03,NNE,29,0.0,0.0,86,0.00,,CLR,0.00,VWS V12.08,2013-09-14 06:12:00,
2013-09-14 02:17:00,49.7,45.7,30.03,NNE,29,0.0,0.0,86,0.00,,CLR,0.00,VWS V12.08,2013-09-14 06:17:00,
2013-09-14 02:22:00,49.7,45.7,30.03,NNE,29,0.0,0.0,86,0.00,,CLR,0.00,VWS V12.08,2013-09-14 06:22:00,
2013-09-14 02:27:00,49.7,46.0,30.03,NNE,29,0.0,0.0,87,0.00,,CLR,0.00,VWS V12.08,2013-09-14 06:27:00,
2013-09-14 02:32:00,49.7,46.0,30.03,NNE,29,0.0,0.0,87,0.00,,CLR,0.00,VWS V12.08,2013-09-14 06:32:00,
2013-09-14 02:37:00,49.7,46.0,30.03,NNE,29,0.0,0.0,87,0.00,,CLR,0.00,VWS V12.08,2013-09-14 06:37:00,
2013-09-14 02:42:00,49.7,46.0,30.03,NNE,29,0.0,0.0,87,0.00,,CLR,0.00,VWS V12.08,2013-09-14 06:42:00,
2013-09-14 02:47:00,49.5,45.8,30.03,NNE,29,0.0,0.0,87,0.00,,CLR,0.00,VWS V12.08,2013-09-14 06:47:00,
2013-09-14 02:52:00,49.5,45.8,30.03,NNE,29,0.0,0.0,87,0.00,,CLR,0.00,VWS V12.08,2013-09-14 06:52:00,
2013-09-14 02:57:00,49.7,46.3,30.03,NNE,29,0.0,0.0,88,0.00,,CLR,0.00,VWS V12.08,2013-09-14 06:57:00,
2013-09-14 03:02:00,49.5,46.1,30.03,NNE,29,0.0,0.0,88,0.00,,CLR,0.00,VWS V12.08,2013-09-14 07:02:00,
2013-09-14 03:07:00,49.3,45.9,30.03,NNE,29,0.0,0.0,88,0.00,,CLR,0.00,VWS V12.08,2013-09-14 07:07:00,
2013-09-14 03:12:00,49.1,45.7,30.03,NNE,29,0.0,0.0,88,0.00,,CLR,0.00,VWS V12.08,2013-09-14 07:12:00,
2013-09-14 03:17:00,49.1,45.7,30.03,NNE,29,0.0,0.0,88,0.00,,CLR,0.00,VWS V12.08,2013-09-14 07:17:00,
2013-09-14 03:22:00,49.0,45.6,30.03,NNE,29,0.0,0.0,88,0.00,,CLR,0.00,VWS V12.08,2013-09-14 07:22:00,
2013-09-14 03:27:00,49.0,45.9,30.03,NNE,29,0.0,0.0,89,0.00,,CLR,0.00,VWS V12.08,2013-09-14 07:27:00,
2013-09-14 03:32:00,49.0,45.9,30.03,NNE,29,0.0,0.0,89,0.00,,CLR,0.00,VWS V12.08,2013-09-14 07:32:00,
2013-09-14 03:37:00,49.0,45.9,30.03,NNE,29,0.0,0.0,89,0.00,,CLR,0.00,VWS V12.08,2013-09-14 07:37:00,
2013-09-14 03:42:00,49.1,46.3,30.03,NNE,29,0.0,0.0,90,0.00,,CLR,0.00,VWS V12.08,2013-09-14 07:42:00,
2013-09-14 03:47:00,49.0,46.2,30.03,NNE,29,0.0,0.0,90,0.00,,CLR,0.00,VWS V12.08,2013-09-14 07:47:00,
2013-09-14 03:52:00,48.8,46.0,30.03,NNE,29,0.0,0.0,90,0.00,,CLR,0.00,VWS V12.08,2013-09-14 07:52:00,
2013-09-14 03:57:00,48.6,45.5,30.03,NNE,29,0.0,0.0,89,0.00,,CLR,0.00,VWS V12.08,2013-09-14 07:57:00,
2013-09-14 04:02:00,48.4,45.3,30.03,NNE,29,0.0,0.0,89,0.00,,CLR,0.00,VWS V12.08,2013-09-14 08:02:00,
2013-09-14 04:07:00,48.4,45.6,30.03,NNE,29,0.0,0.0,90,0.00,,CLR,0.00,VWS V12.08,2013-09-14 08:07:00,
2013-09-14 04:12:00,48.4,45.6,30.03,NNE,29,0.0,0.0,90,0.00,,CLR,0.00,VWS V12.08,2013-09-14 08:12:00,
2013-09-14 04:17:00,48.6,45.8,30.03,NNE,29,0.0,0.0,90,0.00,,CLR,0.00,VWS V12.08,2013-09-14 08:17:00,
2013-09-14 04:22:00,48.6,45.8,30.03,NNE,29,0.0,0.0,90,0.00,,CLR,0.00,VWS V12.08,2013-09-14 08:22:00,
2013-09-14 04:27:00,48.6,45.8,30.03,NNE,29,0.0,0.0,90,0.00,,CLR,0.00,VWS V12.08,2013-09-14 08:27:00,
2013-09-14 04:32:00,48.6,46.1,30.03,NNE,29,0.0,0.0,91,0.00,,CLR,0.00,VWS V12.08,2013-09-14 08:32:00,
2013-09-14 04:37:00,48.8,46.3,30.03,NNE,29,0.0,0.0,91,0.00,,CLR,0.00,VWS V12.08,2013-09-14 08:37:00,
2013-09-14 04:42:00,48.8,46.3,30.03,NNE,29,0.0,0.0,91,0.00,,CLR,0.00,VWS V12.08,2013-09-14 08:42:00,
2013-09-14 04:47:00,49.0,46.7,30.03,NNE,29,0.0,0.0,92,0.00,,,0.00,VWS V12.08,2013-09-14 08:47:00,
2013-09-14 04:52:00,49.0,46.7,30.03,NNE,29,0.0,0.0,92,0.00,,,0.00,VWS V12.08,2013-09-14 08:52:00,
2013-09-14 04:57:00,49.1,46.9,30.03,NNE,29,0.0,0.0,92,0.00,,,0.00,VWS V12.08,2013-09-14 08:57:00,
2013-09-14 05:02:00,49.3,47.4,30.03,NNE,29,0.0,0.0,93,0.00,,,0.00,VWS V12.08,2013-09-14 09:02:00,
2013-09-14 05:07:00,49.5,47.6,30.03,NNE,29,0.0,0.0,93,0.00,,,0.00,VWS V12.08,2013-09-14 09:07:00,
2013-09-14 05:12:00,49.7,47.7,30.03,NNE,29,0.0,0.0,93,0.00,,,0.00,VWS V12.08,2013-09-14 09:12:00,
2013-09-14 05:17:00,49.7,47.7,30.03,NNE,29,0.0,0.0,93,0.00,,CLR,0.00,VWS V12.08,2013-09-14 09:17:00,
2013-09-14 05:22:00,49.7,47.7,30.03,NNE,29,0.0,0.0,93,0.00,,CLR,0.00,VWS V12.08,2013-09-14 09:22:00,
2013-09-14 05:27:00,49.5,47.6,30.03,NNE,29,0.0,0.0,93,0.00,,CLR,0.00,VWS V12.08,2013-09-14 09:27:00,
2013-09-14 05:32:00,49.3,47.4,30.03,NNE,29,0.0,0.0,93,0.00,,,0.00,VWS V12.08,2013-09-14 09:32:00,
2013-09-14 05:37:00,49.1,47.2,30.03,NNE,29,0.0,0.0,93,0.00,,,0.00,VWS V12.08,2013-09-14 09:37:00,
2013-09-14 05:42:00,49.0,47.0,30.03,NNE,29,0.0,0.0,93,0.00,,,0.00,VWS V12.08,2013-09-14 09:42:00,
2013-09-14 05:47:00,49.0,47.0,30.03,NNE,29,0.0,0.0,93,0.00,,,0.00,VWS V12.08,2013-09-14 09:47:00,
2013-09-14 05:52:00,49.0,47.0,30.03,NNE,29,0.0,0.0,93,0.00,,,0.00,VWS V12.08,2013-09-14 09:52:00,
2013-09-14 05:57:00,49.1,47.5,30.03,NNE,29,0.0,0.0,94,0.00,,,0.00,VWS V12.08,2013-09-14 09:57:00,
2013-09-14 06:02:00,49.1,47.5,30.03,NNE,29,0.0,0.0,94,0.00,,,0.00,VWS V12.08,2013-09-14 10:02:00,
2013-09-14 06:07:00,49.3,47.7,30.03,NNE,29,0.0,0.0,94,0.00,,,0.00,VWS V12.08,2013-09-14 10:07:00,
2013-09-14 06:12:00,49.3,47.7,30.03,NNE,29,0.0,0.0,94,0.00,,,0.00,VWS V12.08,2013-09-14 10:12:00,
2013-09-14 06:17:00,49.5,47.8,30.03,NNE,29,0.0,0.0,94,0.00,,,0.00,VWS V12.08,2013-09-14 10:17:00,
2013-09-14 06:22:00,49.7,48.0,30.03,NNE,29,0.0,0.0,94,0.00,,,0.00,VWS V12.08,2013-09-14 10:22:00,
2013-09-14 06:27:00,49.7,48.0,30.03,NNE,29,0.0,0.0,94,0.00,,,0.00,VWS V12.08,2013-09-14 10:27:00,
2013-09-14 06:32:00,49.9,48.2,30.03,NNE,29,0.0,0.0,94,0.00,,,0.00,VWS V12.08,2013-09-14 10:32:00,
2013-09-14 06:37:00,49.9,48.2,30.03,NNE,29,0.0,0.0,94,0.00,,,0.00,VWS V12.08,2013-09-14 10:37:00,
2013-09-14 06:42:00,50.0,48.7,30.03,NNE,29,0.0,0.0,95,0.00,,,0.00,VWS V12.08,2013-09-14 10:42:00,
2013-09-14 06:47:00,50.0,48.7,30.06,NNE,29,0.0,0.0,95,0.00,,,0.00,VWS V12.08,2013-09-14 10:47:00,
2013-09-14 06:52:00,50.0,48.7,30.06,NNE,29,0.0,0.0,95,0.00,,,0.00,VWS V12.08,2013-09-14 10:52:00,
2013-09-14 06:57:00,50.0,48.7,30.06,NNE,29,0.0,0.0,95,0.00,,,0.00,VWS V12.08,2013-09-14 10:57:00,
2013-09-14 07:02:00,49.9,48.5,30.06,NNE,29,0.0,0.0,95,0.00,,,0.00,VWS V12.08,2013-09-14 11:02:00,
2013-09-14 07:07:00,49.9,48.5,30.06,NNE,29,0.0,0.0,95,0.00,,,0.00,VWS V12.08,2013-09-14 11:07:00,
2013-09-14 07:12:00,49.9,48.5,30.06,NNE,29,0.0,0.0,95,0.00,,,0.00,VWS V12.08,2013-09-14 11:12:00,
2013-09-14 07:17:00,49.7,48.3,30.06,NNE,29,0.0,0.0,95,0.00,,,0.00,VWS V12.08,2013-09-14 11:17:00,
2013-09-14 07:22:00,49.7,48.3,30.06,NNE,29,0.0,0.0,95,0.00,,,0.00,VWS V12.08,2013-09-14 11:22:00,
2013-09-14 07:27:00,49.7,48.3,30.06,NNE,29,0.0,0.0,95,0.00,,,0.00,VWS V12.08,2013-09-14 11:27:00,
2013-09-14 07:32:00,49.7,48.3,30.06,NNE,29,0.0,0.0,95,0.00,,,0.00,VWS V12.08,2013-09-14 11:32:00,
2013-09-14 07:37:00,49.7,48.3,30.06,NNE,29,0.0,0.0,95,0.00,,,0.00,VWS V12.08,2013-09-14 11:37:00,
2013-09-14 07:42:00,49.7,48.3,30.06,NNE,29,0.0,0.0,95,0.00,,,0.00,VWS V12.08,2013-09-14 11:42:00,
2013-09-14 07:47:00,49.7,48.3,30.06,NNE,29,0.0,0.0,95,0.00,,,0.00,VWS V12.08,2013-09-14 11:47:00,
2013-09-14 07:52:00,49.9,48.5,30.06,NNE,29,0.0,0.0,95,0.00,,,0.00,VWS V12.08,2013-09-14 11:52:00,
2013-09-14 07:57:00,50.0,48.7,30.06,NNE,29,0.0,0.0,95,0.00,,,0.00,VWS V12.08,2013-09-14 11:57:00,
2013-09-14 08:02:00,50.2,49.1,30.06,NNE,29,0.0,0.0,96,0.00,,,0.00,VWS V12.08,2013-09-14 12:02:00,
2013-09-14 08:07:00,50.8,49.7,30.06,NNE,29,0.0,0.0,96,0.00,,,0.00,VWS V12.08,2013-09-14 12:07:00,
2013-09-14 08:12:00,51.3,50.2,30.06,NNE,29,0.0,0.0,96,0.00,,,0.00,VWS V12.08,2013-09-14 12:12:00,
2013-09-14 08:17:00,51.7,50.6,30.09,NNE,29,0.0,0.0,96,0.00,,,0.00,VWS V12.08,2013-09-14 12:17:00,
2013-09-14 08:22:00,51.5,50.4,30.09,NNE,29,0.0,0.0,96,0.00,,,0.00,VWS V12.08,2013-09-14 12:22:00,
2013-09-14 08:27:00,51.3,49.9,30.09,NNE,29,0.0,0.0,95,0.00,,,0.00,VWS V12.08,2013-09-14 12:27:00,
2013-09-14 08:32:00,51.7,50.3,30.09,NNE,29,0.0,0.0,95,0.00,,,0.00,VWS V12.08,2013-09-14 12:32:00,
2013-09-14 08:37:00,51.8,50.5,30.09,NNE,29,0.0,0.0,95,0.00,,,0.00,VWS V12.08,2013-09-14 12:37:00,
2013-09-14 08:42:00,52.6,51.2,30.09,NNE,29,0.0,0.0,95,0.00,,,0.00,VWS V12.08,2013-09-14 12:42:00,
2013-09-14 08:47:00,53.5,52.1,30.09,NNE,29,0.0,0.0,95,0.00,,,0.00,VWS V12.08,2013-09-14 12:47:00,
2013-09-14 08:52:00,54.4,53.0,30.09,NNE,29,0.0,0.0,95,0.00,,,0.00,VWS V12.08,2013-09-14 12:52:00,
2013-09-14 08:57:00,53.6,52.0,30.09,NNE,29,0.0,0.0,94,0.00,,,0.00,VWS V12.08,2013-09-14 12:57:00,
2013-09-14 09:02:00,53.3,51.3,30.09,NNE,29,0.0,0.0,93,0.00,,,0.00,VWS V12.08,2013-09-14 13:02:00,
2013-09-14 09:07:00,52.9,51.0,30.09,NNE,29,0.0,0.0,93,0.00,,,0.00,VWS V12.08,2013-09-14 13:07:00,
2013-09-14 09:12:00,53.3,51.0,30.09,NNE,29,0.0,0.0,92,0.00,,,0.00,VWS V12.08,2013-09-14 13:12:00,
2013-09-14 09:17:00,53.6,51.1,30.09,NNE,29,0.0,0.0,91,0.00,,,0.00,VWS V12.08,2013-09-14 13:17:00,
2013-09-14 09:22:00,53.8,51.3,30.09,SW,233,0.0,0.0,91,0.00,,,0.00,VWS V12.08,2013-09-14 13:22:00,
2013-09-14 09:34:00,55.1,51.9,30.09,SSE,151,0.0,0.0,89,0.00,,,0.00,VWS V12.08,2013-09-14 13:34:00,
2013-09-14 09:39:00,55.1,51.3,30.09,SSE,151,0.0,0.0,87,0.00,,,0.00,VWS V12.08,2013-09-14 13:39:00,
2013-09-14 09:44:00,55.1,51.3,30.09,ESE,102,0.0,0.0,87,0.00,,,0.00,VWS V12.08,2013-09-14 13:44:00,
2013-09-14 09:49:00,54.9,50.2,30.09,NNE,22,0.0,3.1,84,0.00,,,0.00,VWS V12.08,2013-09-14 13:49:00,
2013-09-14 09:54:00,53.5,45.4,30.09,ENE,60,3.1,3.1,74,0.00,,,0.00,VWS V12.08,2013-09-14 13:54:00,
2013-09-14 09:59:00,54.4,45.9,30.11,East,100,3.1,3.6,73,0.00,,,0.00,VWS V12.08,2013-09-14 13:59:00,
2013-09-14 10:04:00,56.0,47.1,30.11,West,273,0.0,3.1,72,0.00,,,0.00,VWS V12.08,2013-09-14 14:04:00,
2013-09-14 10:09:00,56.2,45.4,30.11,South,170,0.0,0.0,67,0.00,,,0.00,VWS V12.08,2013-09-14 14:09:00,
2013-09-14 10:14:00,56.5,46.1,30.11,South,170,0.0,0.0,68,0.00,,,0.00,VWS V12.08,2013-09-14 14:14:00,
2013-09-14 10:19:00,56.5,44.9,30.11,SSE,159,0.0,0.0,65,0.00,,,0.00,VWS V12.08,2013-09-14 14:19:00,
2013-09-14 10:24:00,57.4,45.4,30.11,SSE,149,0.0,3.6,64,0.00,,,0.00,VWS V12.08,2013-09-14 14:24:00,
2013-09-14 10:29:00,58.1,44.3,30.11,SE,138,4.0,4.0,60,0.00,,,0.00,VWS V12.08,2013-09-14 14:29:00,
2013-09-14 10:34:00,59.8,46.3,30.11,SSE,167,2.2,4.0,61,0.00,,,0.00,VWS V12.08,2013-09-14 14:34:00,
2013-09-14 10:39:00,59.9,44.2,30.11,SE,136,0.0,0.0,56,0.00,,,0.00,VWS V12.08,2013-09-14 14:39:00,
2013-09-14 10:44:00,59.2,41.6,30.11,South,174,0.0,0.0,52,0.00,,,0.00,VWS V12.08,2013-09-14 14:44:00,
2013-09-14 10:49:00,59.8,43.6,30.11,SSE,153,2.7,3.6,55,0.00,,,0.00,VWS V12.08,2013-09-14 14:49:00,
2013-09-14 10:54:00,58.3,37.1,30.11,NNE,14,5.8,5.8,45,0.00,,,0.00,VWS V12.08,2013-09-14 14:54:00,
2013-09-14 10:59:00,58.3,38.7,30.11,ESE,108,2.7,4.9,48,0.00,,,0.00,VWS V12.08,2013-09-14 14:59:00,
2013-09-14 11:04:00,59.2,40.6,30.11,SE,130,3.6,3.6,50,0.00,,,0.00,VWS V12.08,2013-09-14 15:04:00,
2013-09-14 11:09:00,60.7,39.8,30.11,SSE,155,3.6,3.6,46,0.00,,,0.00,VWS V12.08,2013-09-14 15:09:00,
2013-09-14 11:14:00,60.7,39.8,30.11,SE,139,2.2,2.7,46,0.00,,,0.00,VWS V12.08,2013-09-14 15:14:00,
2013-09-14 11:19:00,60.3,40.0,30.11,ESE,105,0.0,0.0,47,0.00,,,0.00,VWS V12.08,2013-09-14 15:19:00,
2013-09-14 11:24:00,59.6,40.4,30.11,ESE,105,2.7,2.7,49,0.00,,,0.00,VWS V12.08,2013-09-14 15:24:00,
2013-09-14 11:29:00,58.9,40.3,30.09,WSW,249,0.0,0.0,50,0.00,,,0.00,VWS V12.08,2013-09-14 15:29:00,
2013-09-14 11:34:00,58.7,40.6,30.09,SSE,158,0.0,0.0,51,0.00,,,0.00,VWS V12.08,2013-09-14 15:34:00,
2013-09-14 11:39:00,58.7,42.6,30.09,SSE,152,0.0,3.6,55,0.00,,,0.00,VWS V12.08,2013-09-14 15:39:00,
2013-09-14 11:44:00,58.9,43.2,30.11,WSW,238,0.0,0.0,56,0.00,,,0.00,VWS V12.08,2013-09-14 15:44:00,
2013-09-14 11:49:00,59.0,41.5,30.11,SW,233,0.0,3.6,52,0.00,,BKN036,0.00,VWS V12.08,2013-09-14 15:49:00,
2013-09-14 11:54:00,59.9,42.3,30.11,South,181,0.0,3.6,52,0.00,,BKN036,0.00,VWS V12.08,2013-09-14 15:54:00,
2013-09-14 11:59:00,60.5,39.1,30.11,East,86,3.1,4.0,45,0.00,,BKN036,0.00,VWS V12.08,2013-09-14 15:59:00,
2013-09-14 12:04:00,59.9,40.2,30.11,SSE,167,0.0,0.0,48,0.00,,BKN036,0.00,VWS V12.08,2013-09-14 16:04:00,
2013-09-14 12:09:00,59.6,40.4,30.11,SE,125,0.0,0.0,49,0.00,,BKN036,0.00,VWS V12.08,2013-09-14 16:09:00,
2013-09-14 12:14:00,59.0,40.4,30.11,SSW,207,0.0,0.0,50,0.00,,BKN036,0.00,VWS V12.08,2013-09-14 16:14:00,
2013-09-14 12:19:00,58.9,40.8,30.11,WSW,240,0.0,0.0,51,0.00,,BKN036,0.00,VWS V12.08,2013-09-14 16:19:00,
2013-09-14 12:24:00,60.5,43.8,30.11,SSE,167,0.0,3.6,54,0.00,,BKN036,0.00,VWS V12.08,2013-09-14 16:24:00,
2013-09-14 12:29:00,62.8,40.6,30.11,SE,141,3.6,5.8,44,0.00,,BKN036,0.00,VWS V12.08,2013-09-14 16:29:00,
2013-09-14 12:34:00,63.2,40.3,30.11,SW,218,2.7,3.1,43,0.00,,BKN036,0.00,VWS V12.08,2013-09-14 16:34:00,
2013-09-14 12:39:00,62.3,37.0,30.11,ESE,105,3.1,3.1,39,0.00,,BKN036,0.00,VWS V12.08,2013-09-14 16:39:00,
2013-09-14 12:44:00,61.4,37.5,30.11,NNE,30,0.0,3.1,41,0.00,,BKN036,0.00,VWS V12.08,2013-09-14 16:44:00,
2013-09-14 12:49:00,61.0,38.4,30.11,South,174,0.0,0.0,43,0.00,,BKN038,0.00,VWS V12.08,2013-09-14 16:49:00,
2013-09-14 12:54:00,61.7,40.2,30.11,South,174,0.0,0.0,45,0.00,,BKN038,0.00,VWS V12.08,2013-09-14 16:54:00,
2013-09-14 12:59:00,63.0,40.8,30.11,SE,138,0.0,0.0,44,0.00,,BKN038,0.00,VWS V12.08,2013-09-14 16:59:00,
2013-09-14 13:04:00,63.2,40.9,30.11,NE,49,0.0,0.0,44,0.00,,BKN038,0.00,VWS V12.08,2013-09-14 17:04:00,
2013-09-14 13:09:00,63.4,39.3,30.11,WSW,238,0.0,0.0,41,0.00,,BKN038,0.00,VWS V12.08,2013-09-14 17:09:00,
2013-09-14 13:14:00,64.3,37.5,30.11,NNE,21,0.0,0.0,37,0.00,,BKN038,0.00,VWS V12.08,2013-09-14 17:14:00,
2013-09-14 13:19:00,62.1,34.8,30.11,ESE,120,0.0,0.0,36,0.00,,BKN038,0.00,VWS V12.08,2013-09-14 17:19:00,
2013-09-14 13:24:00,61.4,36.2,30.11,North,0,0.0,0.0,39,0.00,,BKN038,0.00,VWS V12.08,2013-09-14 17:24:00,
2013-09-14 13:29:00,61.0,36.5,30.09,SSW,198,0.0,0.0,40,0.00,,BKN038,0.00,VWS V12.08,2013-09-14 17:29:00,
2013-09-14 13:34:00,62.3,40.1,30.09,SSW,198,0.0,0.0,44,0.00,,BKN038,0.00,VWS V12.08,2013-09-14 17:34:00,
2013-09-14 13:39:00,63.7,39.6,30.09,ESE,115,0.0,0.0,41,0.00,,BKN038,0.00,VWS V12.08,2013-09-14 17:39:00,
2013-09-14 13:44:00,63.7,39.6,30.09,NE,45,0.0,0.0,41,0.00,,BKN038,0.00,VWS V12.08,2013-09-14 17:44:00,
2013-09-14 13:49:00,61.7,35.2,30.09,NE,43,0.0,0.0,37,0.00,,BKN041,0.00,VWS V12.08,2013-09-14 17:49:00,
2013-09-14 13:54:00,62.6,38.0,30.09,East,96,0.0,0.0,40,0.00,,BKN041,0.00,VWS V12.08,2013-09-14 17:54:00,
2013-09-14 13:59:00,63.9,37.1,30.09,South,183,0.0,5.4,37,0.00,,BKN041,0.00,VWS V12.08,2013-09-14 17:59:00,
2013-09-14 14:04:00,63.0,35.7,30.09,NE,39,2.2,2.2,36,0.00,,BKN041,0.00,VWS V12.08,2013-09-14 18:04:00,
2013-09-14 14:09:00,62.6,36.7,30.09,SE,125,2.7,3.1,38,0.00,,BKN041,0.00,VWS V12.08,2013-09-14 18:09:00,
2013-09-14 14:14:00,63.2,37.8,30.09,NE,49,0.0,3.6,39,0.00,,BKN041,0.00,VWS V12.08,2013-09-14 18:14:00,
2013-09-14 14:19:00,63.0,38.3,30.09,SSW,203,0.0,0.0,40,0.00,,BKN041,0.00,VWS V12.08,2013-09-14 18:19:00,
2013-09-14 14:24:00,63.0,40.2,30.09,SE,143,4.0,4.0,43,0.00,,BKN041,0.00,VWS V12.08,2013-09-14 18:24:00,
2013-09-14 14:29:00,64.3,38.8,30.09,SE,129,2.7,3.1,39,0.00,,BKN041,0.00,VWS V12.08,2013-09-14 18:29:00,
2013-09-14 14:34:00,65.2,36.8,30.09,West,262,0.0,3.1,35,0.00,,BKN041,0.00,VWS V12.08,2013-09-14 18:34:00,
2013-09-14 14:39:00,65.0,38.1,30.09,SSE,147,0.0,2.7,37,0.00,,BKN041,0.00,VWS V12.08,2013-09-14 18:39:00,
2013-09-14 14:44:00,64.6,37.8,30.09,WSW,239,0.0,0.0,37,0.00,,BKN041,0.00,VWS V12.08,2013-09-14 18:44:00,
2013-09-14 14:49:00,65.2,39.6,30.09,SSW,208,2.7,6.3,39,0.00,,BKN038,0.00,VWS V12.08,2013-09-14 18:49:00,
2013-09-14 14:54:00,66.1,41.1,30.09,WNW,290,0.0,2.7,40,0.00,,BKN038,0.00,VWS V12.08,2013-09-14 18:54:00,
2013-09-14 14:59:00,66.8,39.7,30.09,SSW,213,3.1,5.4,37,0.00,,BKN038,0.00,VWS V12.08,2013-09-14 18:59:00,
2013-09-14 15:04:00,66.6,37.4,30.09,South,172,0.0,0.0,34,0.00,,BKN038,0.00,VWS V12.08,2013-09-14 19:04:00,
2013-09-14 15:09:00,66.4,38.7,30.09,SW,217,2.7,3.6,36,0.00,,BKN038,0.00,VWS V12.08,2013-09-14 19:09:00,
2013-09-14 15:14:00,66.6,37.4,30.09,SE,125,0.0,0.0,34,0.00,,BKN038,0.00,VWS V12.08,2013-09-14 19:14:00,
2013-09-14 15:19:00,66.4,40.7,30.09,NW,305,0.0,0.0,39,0.00,,BKN038,0.00,VWS V12.08,2013-09-14 19:19:00,
2013-09-14 15:24:00,65.9,36.8,30.09,NE,52,2.7,3.6,34,0.00,,BKN038,0.00,VWS V12.08,2013-09-14 19:24:00,
2013-09-14 15:29:00,65.2,36.8,30.09,ENE,58,4.0,4.9,35,0.00,,BKN038,0.00,VWS V12.08,2013-09-14 19:29:00,
2013-09-14 15:34:00,64.8,39.3,30.09,North,357,2.7,3.1,39,0.00,,BKN038,0.00,VWS V12.08,2013-09-14 19:34:00,
2013-09-14 15:39:00,65.3,37.7,30.09,ESE,108,0.0,3.6,36,0.00,,BKN038,0.00,VWS V12.08,2013-09-14 19:39:00,
2013-09-14 15:44:00,65.7,37.3,30.09,ENE,61,2.7,4.0,35,0.00,,BKN038,0.00,VWS V12.08,2013-09-14 19:44:00,
2013-09-14 15:49:00,65.7,41.4,30.09,ENE,78,3.1,3.1,41,0.00,,OVC038,0.00,VWS V12.08,2013-09-14 19:49:00,
2013-09-14 15:54:00,65.5,38.6,30.09,SW,230,3.1,3.1,37,0.00,,OVC038,0.00,VWS V12.08,2013-09-14 19:54:00,
2013-09-14 15:59:00,65.0,36.0,30.09,North,357,2.2,3.1,34,0.00,,OVC038,0.00,VWS V12.08,2013-09-14 19:59:00,
2013-09-14 16:04:00,64.8,36.5,30.09,SSW,208,0.0,0.0,35,0.00,,OVC038,0.00,VWS V12.08,2013-09-14 20:04:00,
2013-09-14 16:09:00,64.6,37.1,30.09,SSW,193,0.0,0.0,36,0.00,,OVC038,0.00,VWS V12.08,2013-09-14 20:09:00,
2013-09-14 16:14:00,64.3,36.0,30.09,NE,43,0.0,0.0,35,0.00,,OVC038,0.00,VWS V12.08,2013-09-14 20:14:00,
2013-09-14 16:19:00,63.9,36.5,30.09,NE,48,0.0,0.0,36,0.00,,OVC038,0.00,VWS V12.08,2013-09-14 20:19:00,
2013-09-14 16:24:00,63.7,35.6,30.09,ESE,111,4.9,5.8,35,0.00,,OVC038,0.00,VWS V12.08,2013-09-14 20:24:00,
2013-09-14 16:29:00,63.9,37.1,30.09,North,8,2.7,2.7,37,0.00,,OVC038,0.00,VWS V12.08,2013-09-14 20:29:00,
2013-09-14 16:34:00,64.4,37.6,30.09,East,94,0.0,2.7,37,0.00,,OVC038,0.00,VWS V12.08,2013-09-14 20:34:00,
2013-09-14 16:39:00,64.6,38.5,30.09,East,83,2.7,2.7,38,0.00,,OVC038,0.00,VWS V12.08,2013-09-14 20:39:00,
2013-09-14 16:44:00,64.3,36.0,30.09,NE,38,0.0,3.1,35,0.00,,OVC038,0.00,VWS V12.08,2013-09-14 20:44:00,
2013-09-14 16:49:00,64.4,37.6,30.09,ESE,108,3.6,3.6,37,0.00,,OVC038,0.00,VWS V12.08,2013-09-14 20:49:00,
2013-09-14 16:54:00,64.3,36.8,30.09,NNW,340,3.1,3.1,36,0.00,,OVC038,0.00,VWS V12.08,2013-09-14 20:54:00,
2013-09-14 16:59:00,64.3,36.0,30.09,NE,54,0.0,4.5,35,0.00,,OVC038,0.00,VWS V12.08,2013-09-14 20:59:00,
2013-09-14 17:04:00,63.9,35.7,30.09,NNW,336,2.7,3.1,35,0.00,,SCT038,0.00,VWS V12.08,2013-09-14 21:04:00,
2013-09-14 17:09:00,63.4,36.0,30.09,ENE,73,2.2,3.6,36,0.00,,SCT038,0.00,VWS V12.08,2013-09-14 21:09:00,
2013-09-14 17:14:00,63.0,35.7,30.09,NNW,340,3.1,4.0,36,0.00,,SCT038,0.00,VWS V12.08,2013-09-14 21:14:00,
2013-09-14 17:19:00,63.0,40.8,30.09,North,10,0.0,0.0,44,0.00,,SCT038,0.00,VWS V12.08,2013-09-14 21:19:00,
2013-09-14 17:24:00,62.8,40.6,30.09,WNW,293,0.0,0.0,44,0.00,,SCT038,0.00,VWS V12.08,2013-09-14 21:24:00,
2013-09-14 17:29:00,62.5,38.5,30.09,NE,34,3.1,3.1,41,0.00,,SCT038,0.00,VWS V12.08,2013-09-14 21:29:00,
2013-09-14 17:34:00,62.5,38.5,30.09,NE,34,0.0,0.0,41,0.00,,SCT038,0.00,VWS V12.08,2013-09-14 21:34:00,
2013-09-14 17:39:00,62.3,36.4,30.09,ENE,62,0.0,4.0,38,0.00,,SCT038,0.00,VWS V12.08,2013-09-14 21:39:00,
2013-09-14 17:44:00,61.9,39.8,30.09,ENE,62,0.0,0.0,44,0.00,,SCT038,0.00,VWS V12.08,2013-09-14 21:44:00,
2013-09-14 17:49:00,61.7,38.4,30.09,ENE,62,0.0,0.0,42,0.00,,CLR,0.00,VWS V12.08,2013-09-14 21:49:00,
2013-09-14 17:54:00,61.6,37.7,30.09,North,357,0.0,0.0,41,0.00,,CLR,0.00,VWS V12.08,2013-09-14 21:54:00,
2013-09-14 17:59:00,61.4,39.3,30.09,NNE,17,0.0,0.0,44,0.00,,CLR,0.00,VWS V12.08,2013-09-14 21:59:00,
2013-09-14 18:04:00,61.0,39.0,30.09,NNE,17,0.0,0.0,44,0.00,,CLR,0.00,VWS V12.08,2013-09-14 22:04:00,
2013-09-14 18:09:00,60.8,39.4,30.09,NNE,17,0.0,0.0,45,0.00,,CLR,0.00,VWS V12.08,2013-09-14 22:09:00,
2013-09-14 18:15:00,60.5,39.6,30.09,NNE,17,0.0,0.0,46,0.00,,CLR,0.00,VWS V12.08,2013-09-14 22:15:00,
2013-09-14 18:19:00,60.3,39.5,30.09,NNE,17,0.0,0.0,46,0.00,,CLR,0.00,VWS V12.08,2013-09-14 22:19:00,
2013-09-14 18:25:00,59.9,39.7,30.09,NNE,17,0.0,0.0,47,0.00,,CLR,0.00,VWS V12.08,2013-09-14 22:25:00,
2013-09-14 18:30:00,59.8,39.5,30.09,NNE,17,0.0,0.0,47,0.00,,CLR,0.00,VWS V12.08,2013-09-14 22:30:00,
2013-09-14 18:35:00,59.6,39.3,30.09,NNE,17,0.0,0.0,47,0.00,,CLR,0.00,VWS V12.08,2013-09-14 22:35:00,
2013-09-14 18:40:00,59.4,39.2,30.09,NNE,17,0.0,0.0,47,0.00,,CLR,0.00,VWS V12.08,2013-09-14 22:40:00,
2013-09-14 18:45:00,59.0,39.4,30.09,NNE,17,0.0,0.0,48,0.00,,CLR,0.00,VWS V12.08,2013-09-14 22:45:00,
2013-09-14 18:49:00,58.9,39.2,30.09,NNE,17,0.0,0.0,48,0.00,,CLR,0.00,VWS V12.08,2013-09-14 22:49:00,
2013-09-14 18:54:00,58.7,39.1,30.09,NNE,17,0.0,0.0,48,0.00,,CLR,0.00,VWS V12.08,2013-09-14 22:54:00,
2013-09-14 18:59:00,58.5,38.9,30.09,NNE,17,0.0,0.0,48,0.00,,CLR,0.00,VWS V12.08,2013-09-14 22:59:00,
2013-09-14 19:04:00,58.3,39.3,30.09,NNE,17,0.0,0.0,49,0.00,,CLR,0.00,VWS V12.08,2013-09-14 23:04:00,
2013-09-14 19:09:00,58.1,39.1,30.09,NNE,17,0.0,0.0,49,0.00,,CLR,0.00,VWS V12.08,2013-09-14 23:09:00,
2013-09-14 19:14:00,58.0,39.5,30.09,NNE,17,0.0,0.0,50,0.00,,CLR,0.00,VWS V12.08,2013-09-14 23:14:00,
2013-09-14 19:19:00,57.8,39.3,30.09,NNE,17,0.0,0.0,50,0.00,,CLR,0.00,VWS V12.08,2013-09-14 23:19:00,
2013-09-14 19:24:00,57.4,40.0,30.09,NNE,17,0.0,0.0,52,0.00,,CLR,0.00,VWS V12.08,2013-09-14 23:24:00,
2013-09-14 19:29:00,57.2,39.3,30.09,NNE,17,0.0,0.0,51,0.00,,CLR,0.00,VWS V12.08,2013-09-14 23:29:00,
2013-09-14 19:34:00,56.9,39.0,30.09,NNE,17,0.0,0.0,51,0.00,,CLR,0.00,VWS V12.08,2013-09-14 23:34:00,
2013-09-14 19:39:00,56.7,39.3,30.09,NNE,17,0.0,0.0,52,0.00,,CLR,0.00,VWS V12.08,2013-09-14 23:39:00,
2013-09-14 19:44:00,56.3,40.4,30.09,NNE,17,0.0,0.0,55,0.00,,CLR,0.00,VWS V12.08,2013-09-14 23:44:00,
2013-09-14 19:49:00,56.0,41.0,30.09,NNE,17,0.0,0.0,57,0.00,,CLR,0.00,VWS V12.08,2013-09-14 23:49:00,
2013-09-14 19:54:00,55.8,40.8,30.09,NNE,17,0.0,0.0,57,0.00,,CLR,0.00,VWS V12.08,2013-09-14 23:54:00,
2013-09-14 19:59:00,55.6,41.1,30.09,NNE,17,0.0,0.0,58,0.00,,CLR,0.00,VWS V12.08,2013-09-14 23:59:00,
2013-09-14 20:04:00,55.4,40.5,30.09,NNE,17,0.0,0.0,57,0.00,,CLR,0.00,VWS V12.08,2013-09-15 00:04:00,
2013-09-14 20:09:00,55.4,40.5,30.09,NNE,17,0.0,0.0,57,0.00,,CLR,0.00,VWS V12.08,2013-09-15 00:09:00,
2013-09-14 20:14:00,55.3,40.3,30.09,NNE,17,0.0,0.0,57,0.00,,CLR,0.00,VWS V12.08,2013-09-15 00:14:00,
2013-09-14 20:19:00,55.3,40.8,30.09,NNE,17,0.0,0.0,58,0.00,,CLR,0.00,VWS V12.08,2013-09-15 00:19:00,
2013-09-14 20:24:00,55.1,41.0,30.09,NNE,17,0.0,0.0,59,0.00,,CLR,0.00,VWS V12.08,2013-09-15 00:24:00,
2013-09-14 20:29:00,54.7,41.1,30.11,NNE,17,0.0,0.0,60,0.00,,CLR,0.00,VWS V12.08,2013-09-15 00:29:00,
2013-09-14 20:34:00,54.5,41.0,30.11,NNE,17,0.0,0.0,60,0.00,,CLR,0.00,VWS V12.08,2013-09-15 00:34:00,
2013-09-14 20:39:00,54.5,41.4,30.11,NNE,17,0.0,0.0,61,0.00,,CLR,0.00,VWS V12.08,2013-09-15 00:39:00,
2013-09-14 20:44:00,54.4,41.6,30.11,NNE,17,0.0,0.0,62,0.00,,CLR,0.00,VWS V12.08,2013-09-15 00:44:00,
2013-09-14 20:49:00,54.2,41.9,30.11,NNE,17,0.0,0.0,63,0.00,,CLR,0.00,VWS V12.08,2013-09-15 00:49:00,
2013-09-14 20:54:00,53.8,41.9,30.11,NNE,17,0.0,0.0,64,0.00,,CLR,0.00,VWS V12.08,2013-09-15 00:54:00,
2013-09-14 20:59:00,53.6,41.8,30.11,NNE,17,0.0,0.0,64,0.00,,CLR,0.00,VWS V12.08,2013-09-15 00:59:00,
2013-09-14 21:04:00,53.6,41.8,30.11,NNE,17,0.0,0.0,64,0.00,,CLR,0.00,VWS V12.08,2013-09-15 01:04:00,
2013-09-14 21:09:00,53.5,41.6,30.11,NNE,17,0.0,0.0,64,0.00,,CLR,0.00,VWS V12.08,2013-09-15 01:09:00,
2013-09-14 21:14:00,53.3,41.8,30.11,NNE,17,0.0,0.0,65,0.00,,CLR,0.00,VWS V12.08,2013-09-15 01:14:00,
2013-09-14 21:19:00,52.9,41.9,30.11,NNE,17,0.0,0.0,66,0.00,,CLR,0.00,VWS V12.08,2013-09-15 01:19:00,
2013-09-14 21:24:00,52.9,42.3,30.11,NNE,17,0.0,0.0,67,0.00,,CLR,0.00,VWS V12.08,2013-09-15 01:24:00,
2013-09-14 21:29:00,52.7,42.5,30.11,NNE,17,0.0,0.0,68,0.00,,CLR,0.00,VWS V12.08,2013-09-15 01:29:00,
2013-09-14 21:34:00,52.6,42.7,30.11,NNE,17,0.0,0.0,69,0.00,,CLR,0.00,VWS V12.08,2013-09-15 01:34:00,
2013-09-14 21:39:00,52.2,42.3,30.11,NNE,17,0.0,0.0,69,0.00,,CLR,0.00,VWS V12.08,2013-09-15 01:39:00,
2013-09-14 21:44:00,52.0,42.9,30.11,NNE,17,0.0,0.0,71,0.00,,CLR,0.00,VWS V12.08,2013-09-15 01:44:00,
2013-09-14 21:49:00,52.0,44.0,30.11,NNE,17,0.0,0.0,74,0.00,,CLR,0.00,VWS V12.08,2013-09-15 01:49:00,
2013-09-14 21:54:00,51.8,44.2,30.11,NNE,17,0.0,0.0,75,0.00,,CLR,0.00,VWS V12.08,2013-09-15 01:54:00,
2013-09-14 21:59:00,51.8,44.2,30.11,NNE,17,0.0,0.0,75,0.00,,CLR,0.00,VWS V12.08,2013-09-15 01:59:00,
2013-09-14 22:04:00,51.7,44.0,30.11,NNE,17,0.0,0.0,75,0.00,,CLR,0.00,VWS V12.08,2013-09-15 02:04:00,
2013-09-14 22:09:00,51.7,44.3,30.11,NNE,17,0.0,0.0,76,0.00,,CLR,0.00,VWS V12.08,2013-09-15 02:09:00,
2013-09-14 22:14:00,51.7,44.3,30.11,NNE,17,0.0,0.0,76,0.00,,CLR,0.00,VWS V12.08,2013-09-15 02:14:00,
2013-09-14 22:19:00,51.5,44.5,30.11,NNE,17,0.0,0.0,77,0.00,,CLR,0.00,VWS V12.08,2013-09-15 02:19:00,
2013-09-14 22:24:00,51.5,44.9,30.11,NNE,17,0.0,0.0,78,0.00,,CLR,0.00,VWS V12.08,2013-09-15 02:24:00,
2013-09-14 22:29:00,51.5,45.2,30.11,NNE,17,0.0,0.0,79,0.00,,CLR,0.00,VWS V12.08,2013-09-15 02:29:00,
2013-09-14 22:34:00,51.5,45.2,30.11,NNE,17,0.0,0.0,79,0.00,,CLR,0.00,VWS V12.08,2013-09-15 02:34:00,
2013-09-14 22:39:00,51.5,45.5,30.11,NNE,17,0.0,0.0,80,0.00,,CLR,0.00,VWS V12.08,2013-09-15 02:39:00,
2013-09-14 22:44:00,51.7,46.3,30.11,NNE,17,0.0,0.0,82,0.00,,CLR,0.00,VWS V12.08,2013-09-15 02:44:00,
2013-09-14 22:49:00,51.5,46.2,30.11,NNE,17,0.0,0.0,82,0.00,,CLR,0.00,VWS V12.08,2013-09-15 02:49:00,
2013-09-14 22:54:00,51.3,46.6,30.11,NNE,17,0.0,0.0,84,0.00,,CLR,0.00,VWS V12.08,2013-09-15 02:54:00,
2013-09-14 22:59:00,51.1,46.8,30.14,NNE,17,0.0,0.0,85,0.00,,CLR,0.00,VWS V12.08,2013-09-15 02:59:00,
2013-09-14 23:04:00,50.9,47.5,30.14,NNE,17,0.0,0.0,88,0.00,,CLR,0.00,VWS V12.08,2013-09-15 03:04:00,
2013-09-14 23:09:00,50.8,47.9,30.14,NNE,17,0.0,0.0,90,0.00,,CLR,0.00,VWS V12.08,2013-09-15 03:09:00,
2013-09-14 23:14:00,50.6,48.0,30.14,NNE,17,3.6,3.6,91,0.00,,CLR,0.00,VWS V12.08,2013-09-15 03:14:00,
2013-09-14 23:19:00,50.6,48.3,30.14,NNE,17,0.0,2.7,92,0.00,,CLR,0.00,VWS V12.08,2013-09-15 03:19:00,
2013-09-14 23:24:00,50.6,48.6,30.14,NNE,17,0.0,0.0,93,0.00,,CLR,0.00,VWS V12.08,2013-09-15 03:24:00,
2013-09-14 23:29:00,50.6,48.6,30.14,NNE,17,0.0,0.0,93,0.00,,CLR,0.00,VWS V12.08,2013-09-15 03:29:00,
2013-09-14 23:34:00,50.8,48.8,30.14,NNE,17,0.0,0.0,93,0.00,,CLR,0.00,VWS V12.08,2013-09-15 03:34:00,
2013-09-14 23:39:00,50.8,48.8,30.14,NNE,17,0.0,0.0,93,0.00,,CLR,0.00,VWS V12.08,2013-09-15 03:39:00,
2013-09-14 23:44:00,50.8,48.8,30.14,NNE,17,0.0,0.0,93,0.00,,CLR,0.00,VWS V12.08,2013-09-15 03:44:00,
2013-09-14 23:49:00,50.9,49.0,30.14,NNE,17,0.0,0.0,93,0.00,,CLR,0.00,VWS V12.08,2013-09-15 03:49:00,
2013-09-14 23:54:00,50.9,49.0,30.14,NNE,17,0.0,0.0,93,0.00,,CLR,0.00,VWS V12.08,2013-09-15 03:54:00,
2013-09-14 23:59:00,50.9,49.0,30.14,NNE,17,0.0,0.0,93,0.00,,CLR,0.00,VWS V12.08,2013-09-15 03:59:00,